Location: Chabonne
(46.1343°N, 3.3201°E)
Time: 23:36:10
(UTC+00:00)

Daily predictions for brighter satellites

Satellite Brightness Start Highest point End
(mag) Time Altitude Azimuth Time Altitude Azimuth Time Altitude Azimuth
COSMOS 2406 3.8 17:17:37 10° NNW 17:23:01 39° NE 17:28:22 10° ESE
Nadezhda 3 Rocket 4.1 17:17:02 10° S 17:23:12 63° E 17:29:29 10° NNE
Cosmos 1934 Rocket 4.4 17:18:39 10° N 17:24:39 43° ENE 17:30:39 10° SE
Unknown 3.9 17:20:45 10° WSW 17:24:53 68° NNW 17:29:01 10° ENE
Unknown 3.9 17:22:22 10° WSW 17:26:29 67° NNW 17:30:38 10° ENE
Cosmos 1825 Rocket 3.5 17:24:12 10° N 17:28:36 76° E 17:32:59 10° SSE
CORIOLIS 4.4 17:23:27 10° SSE 17:28:48 80° WSW 17:34:12 10° NNW
Abrixas rocket 4.3 17:27:34 10° SSE 17:28:53 12° SE 17:30:12 10° ESE
Cosmos 1953 2.3 17:25:06 10° S 17:29:08 69° E 17:33:11 10° NNE
Cosmos 1953 Rocket 3.6 17:26:48 10° N 17:31:08 55° ENE 17:35:23 10° SSE
Unknown 4.0 17:28:52 10° WSW 17:32:57 61° NNW 17:37:05 10° NE
Unknown 4.0 17:29:06 10° WSW 17:33:12 62° NNW 17:37:20 10° NE
YAOGAN 6 3.2 17:30:16 10° SE 17:33:39 36° ENE 17:37:02 10° N
Unknown 4.0 17:29:46 10° WSW 17:33:53 61° NNW 17:38:00 10° NE
Unknown 3.9 17:32:52 10° NW 17:35:43 32° NNE 17:38:29 11° E
Cosmos 1758 4.1 17:32:43 10° SSW 17:36:38 56° WNW 17:40:33 10° N
Unknown 4.1 17:33:43 10° WSW 17:37:49 58° NNW 17:41:55 10° NE
Unknown 4.1 17:34:08 10° WSW 17:38:13 58° NNW 17:42:20 10° NE
Cosmos 1844 Rocket 2.7 17:32:39 10° SSW 17:38:19 87° ESE 17:44:00 10° NNE
Unknown 4.1 17:35:55 10° WSW 17:40:00 55° NNW 17:44:06 10° NE
FengYun 1-2 T 4.3 17:35:05 10° SSE 17:40:38 61° ENE 17:46:10 10° N
Unknown 4.2 17:39:15 10° WSW 17:43:19 54° NNW 17:47:24 10° NE
Unknown 4.2 17:39:38 10° WSW 17:43:42 54° NNW 17:47:47 10° NE
Cosmos 1606 Rocket 3.5 17:39:20 10° S 17:43:43 83° E 17:48:07 10° N
Unknown 4.2 17:40:49 10° WSW 17:44:53 54° NNW 17:48:59 10° NE
Unknown 2.5 17:42:46 10° NW 17:45:24 62° NNE 17:47:38 13° ESE
Envisat 3.0 17:42:51 10° SSE 17:47:56 85° ENE 17:53:02 10° NNW
Unknown 4.2 17:43:59 10° W 17:48:03 53° NNW 17:52:07 10° NE
Meteor 1-16 Rocket 4.2 17:43:22 10° S 17:48:50 60° E 17:54:10 10° NNE
BREEZE-M DEB (TANK) 4.0 17:44:32 10° SSW 17:49:20 28° SSE 17:51:13 15° E
Unknown 4.3 17:47:30 10° W 17:51:32 50° NNW 17:55:27 11° NE
Cosmos 1758 Rocket 4.4 17:48:02 10° NNW 17:52:24 56° W 17:56:46 10° S
Unknown 4.3 17:49:10 10° W 17:53:12 49° NNW 17:57:03 11° NE
Cosmos 1908 3.9 17:50:19 10° SSE 17:53:49 32° E 17:57:20 10° NNE
Unknown 4.3 17:50:51 10° W 17:54:53 48° NNW 17:58:39 12° NE
Cosmos 1461 4.1 17:52:32 10° NNW 17:55:54 24° NE 17:58:04 16° E
Unknown 4.4 17:52:32 10° W 17:56:33 48° NNW 18:00:15 12° NE
Lacrosse 5 rocket 2.3 17:54:44 10° WNW 17:58:19 42° SW 18:02:04 10° SSE
ASTEX 1 3.3 17:53:56 10° N 17:58:54 75° E 18:03:52 10° S
Cosmos 1356 3.5 17:55:45 10° S 17:59:05 51° E 18:02:27 10° NNE
Cosmos 2278 Rocket 2.8 17:54:48 10° SSE 17:59:49 34° ESE 18:04:52 10° NE
Unknown 4.4 17:55:54 10° W 17:59:54 46° NNW 18:03:27 13° NE
Cosmos 1939 Rocket 3.6 17:56:54 10° SE 18:00:28 32° ENE 18:04:05 10° N
Unknown 4.4 17:57:37 10° W 18:01:37 45° NNW 18:05:06 13° NE
Unknown 4.4 17:59:16 10° W 18:03:15 45° NNW 18:06:39 14° NE
Unknown 4.4 18:00:15 10° NW 18:03:16 28° NNE 18:05:05 18° ENE
Cosmos 1844 3.9 17:58:42 10° SSW 18:04:24 77° WNW 18:10:13 10° NNE
Unknown 4.5 18:00:53 10° W 18:04:52 45° NNW 18:08:12 14° NE
ATLAS 5 CENTAUR R/B 3.0 18:01:11 10° WSW 18:05:15 38° NW 18:09:49 10° NNE
Unknown 4.5 18:01:18 10° W 18:05:18 44° NNW 18:08:36 14° NE
Unknown 4.5 18:04:03 10° W 18:08:02 45° NNW 18:11:14 15° NE
SKYMED 2 3.6 18:04:19 10° NNE 18:08:40 84° WNW 18:13:01 10° SSW
Cosmos 489 Rocket 4.4 18:02:46 10° S 18:08:53 63° ESE 18:15:02 10° NNE
Cosmos 1328 3.7 18:05:43 10° N 18:09:43 79° E 18:13:40 10° SSE
Unknown 4.5 18:07:27 10° W 18:11:25 43° NNW 18:14:29 16° NE
YAOGAN 1 2.5 18:08:15 10° SSE 18:12:34 86° ENE 18:16:56 10° NNW
Falcon 9 debris 4.3 18:14:38 10° NW 18:17:46 31° NNE 18:18:58 24° NE
Cosmos 292 Rocket 3.6 18:14:47 10° SSW 18:19:32 80° ESE 18:24:18 10° NNE
CSL-04 Rocket 3.8 18:17:17 10° SSE 18:22:49 79° WSW 18:28:21 10° NNW
CZ-4 R/B 2.2 18:19:16 10° S 18:23:21 55° W 18:27:31 10° NNW
USA 238 DEB 4.1 18:18:22 10° S 18:24:22 36° ESE 18:28:53 17° ENE
USA 238 4.2 18:18:30 10° S 18:24:29 36° ESE 18:28:55 17° ENE
Unknown 4.3 18:24:45 10° NW 18:27:57 32° NNE 18:28:48 28° NE
Shenzhou-11 Module 2.4 18:26:54 10° WSW 18:29:33 40° S 18:29:46 39° SSE
Ariane Rocket 3.0 18:25:31 10° SSE 18:30:31 63° ENE 18:35:35 10° N
Cosmos 1726 2.7 18:26:58 10° SSW 18:30:33 57° W 18:34:10 10° N
NOAA 11 4.1 18:25:15 10° SSE 18:30:40 74° ENE 18:36:07 10° N
Lacrosse 5 2.4 18:26:00 10° NW 18:30:51 43° NNE 18:32:47 30° ENE
Cosmos 1242 Rocket 3.9 18:29:58 10° NNW 18:33:29 42° W 18:36:57 10° SSW
CZ-2D R/B 3.2 18:34:32 10° SSE 18:38:22 86° WSW 18:42:16 10° NNW
ARGOS 4.1 18:38:25 27° ENE 18:38:32 27° ENE 18:43:00 10° N
Cosmos 2058 Rocket 4.1 18:36:23 10° SSW 18:40:35 47° WNW 18:44:49 10° N
Cosmos 1833 Rocket 2.6 18:35:12 10° NNW 18:40:50 69° ENE 18:44:18 24° SE
Cosmos 921 Rocket 4.5 18:36:59 10° SW 18:41:13 39° WNW 18:45:27 10° N
Cosmos 1339 Rocket 4.5 18:40:20 10° S 18:46:24 84° W 18:52:35 10° N
SPOT 3 Rocket 4.0 18:48:34 37° ENE 18:48:52 37° ENE 18:53:39 10° N
NOSS 3-2 (A) 3.7 18:44:44 10° S 18:50:04 41° ESE 18:51:20 37° E
Cosmos 1777 Rocket 4.3 18:46:14 10° NNW 18:51:26 66° WSW 18:56:34 10° S
HJ-1C 3.2 18:51:33 81° NNE 18:51:33 81° NNE 18:54:49 10° N
Cosmos 1459 Rocket 4.1 18:50:32 10° N 18:56:36 53° ENE 18:58:57 35° SE
Cosmos 2058 3.7 18:55:13 10° N 18:58:10 38° NNE 18:58:10 38° NNE
Cosmos 1605 Rocket 4.5 18:53:15 10° NNW 18:59:21 60° W 19:05:19 10° S
Gbstr 26 Del rocket 4.1 18:55:00 10° WNW 19:01:16 84° NNE 19:04:05 41° ESE
Cosmos 2082 Rocket 2.1 18:57:14 10° NNW 19:02:58 72° ENE 19:04:38 46° SE
Abrixas rocket 3.8 19:01:16 10° WSW 19:02:52 27° SW 19:02:52 27° SW
SJ 16-02 3.4 19:01:04 10° N 19:02:25 16° NNE 19:02:25 16° NNE
Resurs 01 Rocket 3.9 19:09:04 13° NNE 19:09:04 13° NNE 19:09:39 10° NNE
H-2A R/B 2.5 19:06:53 45° NE 19:06:53 45° NE 19:11:38 10° N
Cosmos 1727 Rocket 4.0 19:01:42 10° S 19:07:53 83° W 19:14:06 10° N
Cosmos 1802 Rocket 4.0 19:10:14 10° N 19:16:38 63° ENE 19:17:48 54° ESE
Cosmos 2173 Rocket 3.8 19:13:39 10° N 19:19:57 78° E 19:22:02 44° SSE
SJ-11-01 4.3 19:22:27 74° SSW 19:22:47 80° WSW 19:27:31 10° NNW
In-Cosmos 22 Rocket 4.0 19:25:12 10° N 19:30:27 83° NE 19:30:27 83° NE
Cosmos 1898 Rocket 4.1 19:28:35 10° NNW 19:32:33 47° N 19:32:33 47° N
Cosmos 1461 4.0 19:31:14 10° NW 19:34:29 42° W 19:34:29 42° W
CZ-2C R/B 4.0 19:37:02 42° NNE 19:37:02 42° NNE 19:41:09 10° N
ADEOS Rocket 3.3 19:28:33 10° NNE 19:36:19 71° ESE 19:43:32 10° S
Cosmos 1725 Rocket 4.3 19:32:13 10° N 19:37:16 52° NE 19:37:16 52° NE
Cosmos 1000 Rocket 4.4 19:33:46 10° S 19:39:57 87° W 19:46:15 10° N
Cosmos 2100 Rocket 4.1 19:34:38 10° NNW 19:40:49 70° W 19:43:19 37° SSW
Cosmos 2278 Rocket 3.3 19:38:24 10° SW 19:43:46 42° NW 19:49:11 10° NNE
ATLAS 3B R/B 4.5 19:44:26 10° SSW 19:45:35 15° S 19:45:35 15° S
ATLAS 5 CENTAUR R/B 4.4 19:48:57 10° NW 19:51:25 14° NNW 19:53:18 12° N
ATLAS CENTAUR R/B 4.3 19:54:43 10° N 19:55:01 11° N 19:55:01 11° N
Cosmos 2016 Rocket 4.1 19:57:24 10° NNW 20:03:18 71° WNW 20:03:18 71° WNW
Lacrosse 5 3.4 20:09:02 10° WNW 20:12:01 33° WNW 20:12:01 33° WNW
USA 238 DEB 4.1 20:08:26 10° WSW 20:15:02 56° NW 20:16:23 49° N
USA 238 4.1 20:08:32 10° WSW 20:15:09 57° NW 20:16:26 50° N
ARGOS 4.3 20:19:56 40° NW 20:19:56 40° NW 20:23:47 10° NNW
SJ 16-02 4.4 20:39:10 10° NNW 20:39:24 11° NW 20:39:24 11° NW
H-2A R/B 4.1 20:47:31 24° WNW 20:47:31 24° WNW 20:50:39 10° NW
Cosmos 2082 Rocket 4.4 20:42:33 10° WNW 20:46:24 19° W 20:46:31 19° W
